Portada
METAR-TAF:

METAR-TAF

Aeropuertos :

Creston, Iowa, Estados Unidos

latitud: 41-01N, longitud: 094-22W, altitud: 394 m

Observación

El informe se hizo hace 9 minutos, a las 23:35 UTC
Viento 9 kt del norte con ráfagas de 14 kt
Temperatura 25°C
Humedad 47%
Presión 1021 hPa
Visibilidad: 16.1 km
Cielo despejado

METAR: KCSQ 012335Z AUTO 36009G14KT 10SM CLR 25/13 A3015 RMK AO2

Hora: 18:44 (23:44 UTC)


TAF: falta

Observaciones y pronósticos meteorológicos de más de 4000 aeropuertos (mensajes METAR y TAF).

Los puntos amarillos y rojos representan las estaciones disponibles.

Ponga el ratón en el punto deseado para ver el nombre de la estación.

Haga clic para ver las observaciones y los pronósticos meteorológicos.

Para cambiar el mapa : haga clic en los botones verdes con una cruz de color negro para hacer un zoom, en el botón verde con un guión para alejar o en las flechas verdes para mapas adyacentes.


METAR-TAF: